TimeCDT,TemperatureF,Dew PointF,Humidity,Sea Level PressureIn,VisibilityMPH,Wind Direction,Wind SpeedMPH,Gust SpeedMPH,PrecipitationIn,Events,Conditions,WindDirDegrees,DateUTC
1:54 AM,33.1,26.1,75,30.35,10.0,NW,11.5,-,N/A,,Clear,310,2012-10-26 06:54:00
2:54 AM,33.1,26.1,75,30.38,10.0,NW,11.5,-,N/A,,Clear,310,2012-10-26 07:54:00
3:54 AM,32.0,25.0,75,30.40,10.0,West,8.1,-,N/A,,Scattered Clouds,280,2012-10-26 08:54:00
4:54 AM,33.1,26.1,75,30.43,10.0,WNW,9.2,-,N/A,,Overcast,290,2012-10-26 09:54:00
5:54 AM,34.0,26.1,73,30.45,10.0,NW,9.2,-,N/A,,Overcast,310,2012-10-26 10:54:00
6:54 AM,34.0,27.0,75,30.46,10.0,NW,6.9,-,N/A,,Overcast,310,2012-10-26 11:54:00
7:54 AM,35.1,27.0,72,30.48,10.0,NW,6.9,-,N/A,,Overcast,320,2012-10-26 12:54:00
8:54 AM,36.0,26.1,67,30.50,10.0,NNW,8.1,-,N/A,,Overcast,330,2012-10-26 13:54:00
9:54 AM,37.9,26.1,62,30.51,10.0,NNW,10.4,-,N/A,,Overcast,340,2012-10-26 14:54:00
10:54 AM,39.0,26.1,60,30.52,10.0,NNW,12.7,-,N/A,,Overcast,340,2012-10-26 15:54:00
11:54 AM,39.9,25.0,55,30.52,10.0,NW,10.4,-,N/A,,Overcast,320,2012-10-26 16:54:00
12:54 PM,41.0,26.1,55,30.51,10.0,NW,11.5,-,N/A,,Overcast,310,2012-10-26 17:54:00
1:54 PM,41.0,26.1,55,30.50,10.0,NNW,11.5,-,N/A,,Overcast,340,2012-10-26 18:54:00
2:54 PM,42.1,27.0,55,30.47,10.0,WNW,9.2,-,N/A,,Overcast,300,2012-10-26 19:54:00
3:54 PM,42.1,26.1,53,30.46,10.0,WNW,11.5,-,N/A,,Overcast,300,2012-10-26 20:54:00
4:54 PM,41.0,26.1,55,30.45,10.0,WNW,11.5,-,N/A,,Overcast,300,2012-10-26 21:54:00
5:54 PM,39.9,25.0,55,30.45,10.0,WNW,9.2,-,N/A,,Overcast,300,2012-10-26 22:54:00
6:54 PM,39.9,25.0,55,30.44,10.0,NW,9.2,-,N/A,,Overcast,320,2012-10-26 23:54:00
7:54 PM,37.9,26.1,62,30.45,10.0,NW,6.9,-,N/A,,Overcast,320,2012-10-27 00:54:00
8:54 PM,37.9,26.1,62,30.45,10.0,NW,5.8,-,N/A,,Overcast,310,2012-10-27 01:54:00
9:54 PM,37.9,25.0,60,30.45,10.0,WNW,6.9,-,N/A,,Overcast,290,2012-10-27 02:54:00
10:54 PM,37.0,25.0,62,30.44,10.0,WNW,6.9,-,N/A,,Overcast,300,2012-10-27 03:54:00
11:54 PM,34.0,25.0,70,30.44,10.0,WNW,5.8,-,N/A,,Partly Cloudy,300,2012-10-27 04:54:00